This is the latest recevied weather packets stored in our database for station/object IW2NIA-3. If no packets are shown the sender has not sent any weather packets the latest 10 day(s).
| Time | Temp. | Humidity | Pressure | Rain* | Wind** | Luminosity | Snow |
|---|---|---|---|---|---|---|---|
| 1777834120 | 18.89° C | 46% | 1015.8 hPa | 0 mm | - | - | - |
| 1777833219 | 18.89° C | 53% | 1015.8 hPa | 0 mm | - | - | - |
| 1777832310 | 19.44° C | 56% | 1015.7 hPa | 0 mm | - | - | - |
| 1777831420 | 20° C | 57% | 1015.7 hPa | 0 mm | - | - | - |
| 1777830516 | 20.56° C | 47% | 1015.6 hPa | 0 mm | - | - | - |
| 1777829609 | 21.11° C | 45% | 1015.6 hPa | 0 mm | - | - | - |
| 1777828722 | 21.11° C | 42% | 1015.7 hPa | 0 mm | - | - | - |
| 1777827817 | 21.11° C | 41% | 1015.6 hPa | 0 mm | - | - | - |
| 1777826913 | 21.67° C | 41% | 1015.7 hPa | 0 mm | - | - | - |
| 1777826006 | 21.67° C | 43% | 1015.7 hPa | 0 mm | - | - | - |
| 1777825122 | 21.67° C | 42% | 1015.7 hPa | 0 mm | - | - | - |
| 1777824213 | 21.67° C | 41% | 1016 hPa | 0 mm | - | - | - |
| 1777823309 | 21.67° C | 43% | 1016.2 hPa | 0 mm | - | - | - |
| 1777822422 | 21.67° C | 43% | 1016.3 hPa | 0 mm | - | - | - |
| 1777821512 | 21.67° C | 46% | 1016.3 hPa | 0 mm | - | - | - |
| 1777820627 | 21.67° C | 44% | 1016.5 hPa | 0 mm | - | - | - |
| 1777819717 | 21.67° C | 42% | 1016.6 hPa | 0 mm | - | - | - |
| 1777818815 | 21.67° C | 43% | 1016.9 hPa | 0 mm | - | - | - |
| 1777817912 | 21.67° C | 45% | 1017 hPa | 0 mm | - | - | - |
| 1777817015 | 21.67° C | 42% | 1017.1 hPa | 0 mm | - | - | - |
| 1777816111 | 21.67° C | 41% | 1017.3 hPa | 0 mm | - | - | - |
| 1777815220 | 21.67° C | 43% | 1017.5 hPa | 0 mm | - | - | - |
| 1777814315 | 21.67° C | 41% | 1017.7 hPa | 0 mm | - | - | - |
| 1777813413 | 22.22° C | 45% | 1017.8 hPa | 0 mm | - | - | - |
| 1777812510 | 21.11° C | 44% | 1018 hPa | 0 mm | - | - | - |
* Rain latest hour (hover to see other rain measurements)
** Current wind speed in m/s (hover to see current wind gust speed)